Location: Zilina
(0.0000°N, 18.7333°E)
Time: 19:53:50
(UTC+02:00)

GEOS 3 Rocket - Pass Details

Date: 19 February 2019
Orbit: 790 x 830 km, 115.0° (Epoch: 22 October)

Event Time Altitude Azimuth Distance (km) Brightness Sun altitude
Rises 19:33:57 0° 153° (SSE) 3,358 6.7 -23.3°
Reaches altitude 10° 19:36:16 10° 153° (SSE) 2,419 5.9 -23.9°
Maximum altitude 19:41:32 84° 241° (WSW) 824 3.6 -25.1°
Drops below altitude 10° 19:46:44 10° 330° (NNW) 2,387 6.2 -26.4°
Sets 19:49:00 0° 331° (NNW) 3,310 7.0 -27.0°
